Time,TemperatureF,DewpointF,PressureIn,WindDirection,WindDirectionDegrees,WindSpeedMPH,WindSpeedGustMPH,Humidity,HourlyPrecipIn,Conditions,Clouds,dailyrainin,SoftwareType,DateUTC
2013-01-16 00:00:00,19.4,12.0,29.66,East,79,2.0,8.0,72,0.00,,,0.00,weatherlink.com 1.10,2013-01-16 06:00:00,
2013-01-16 00:15:00,19.4,12.0,29.64,ESE,108,5.0,6.0,74,0.00,,,0.00,weatherlink.com 1.10,2013-01-16 06:15:00,
2013-01-16 00:30:00,19.3,13.0,29.62,East,90,2.0,8.0,76,0.00,,,0.00,weatherlink.com 1.10,2013-01-16 06:30:00,
2013-01-16 00:45:00,19.1,14.0,29.61,East,96,1.0,6.0,81,0.00,,,0.00,weatherlink.com 1.10,2013-01-16 06:45:00,
2013-01-16 01:15:00,18.5,16.0,29.58,NE,50,7.0,10.0,88,0.00,,,0.00,weatherlink.com 1.10,2013-01-16 07:15:00,
2013-01-16 01:30:00,18.3,16.0,29.57,East,80,0.0,9.0,90,0.00,,,0.00,weatherlink.com 1.10,2013-01-16 07:30:00,
2013-01-16 01:45:00,18.4,16.0,29.57,ENE,77,0.0,8.0,90,0.00,,,0.00,weatherlink.com 1.10,2013-01-16 07:45:00,
2013-01-16 02:00:00,18.8,17.0,29.57,ENE,72,2.0,8.0,91,0.00,,,0.00,weatherlink.com 1.10,2013-01-16 08:00:00,
2013-01-16 02:15:00,19.2,17.0,29.57,ESE,108,2.0,9.0,91,0.00,,,0.00,weatherlink.com 1.10,2013-01-16 08:15:00,
2013-01-16 02:30:00,19.4,17.0,29.57,East,91,2.0,6.0,91,0.00,,,0.00,weatherlink.com 1.10,2013-01-16 08:30:00,
2013-01-16 02:45:00,19.6,17.0,29.56,ENE,73,1.0,7.0,91,0.00,,,0.00,weatherlink.com 1.10,2013-01-16 08:45:00,
2013-01-16 03:00:00,19.7,18.0,29.57,SE,126,0.0,5.0,92,0.00,,,0.00,weatherlink.com 1.10,2013-01-16 09:00:00,
2013-01-16 03:15:00,19.9,18.0,29.56,ESE,110,2.0,9.0,92,0.00,,,0.00,weatherlink.com 1.10,2013-01-16 09:15:00,
2013-01-16 03:30:00,20.2,18.0,29.55,SE,145,1.0,6.0,92,0.00,,,0.00,weatherlink.com 1.10,2013-01-16 09:30:00,
2013-01-16 03:45:00,20.3,18.0,29.55,ESE,113,0.0,5.0,92,0.00,,,0.00,weatherlink.com 1.10,2013-01-16 09:45:00,
2013-01-16 04:00:00,20.4,19.0,29.55,SE,133,5.0,6.0,92,0.00,,,0.00,weatherlink.com 1.10,2013-01-16 10:00:00,
2013-01-16 04:15:00,20.7,19.0,29.55,SE,136,4.0,6.0,93,0.00,,,0.00,weatherlink.com 1.10,2013-01-16 10:15:00,
2013-01-16 04:31:00,20.8,19.0,29.55,ENE,72,0.0,7.0,92,0.00,,,0.00,weatherlink.com 1.10,2013-01-16 10:31:00,
2013-01-16 04:46:00,20.9,19.0,29.55,SE,138,2.0,5.0,93,0.00,,,0.00,weatherlink.com 1.10,2013-01-16 10:46:00,
2013-01-16 05:01:00,21.0,19.0,29.54,ESE,105,1.0,6.0,93,0.00,,,0.00,weatherlink.com 1.10,2013-01-16 11:01:00,
2013-01-16 05:16:00,21.2,20.0,29.55,SE,127,0.0,6.0,93,0.00,,,0.00,weatherlink.com 1.10,2013-01-16 11:16:00,
2013-01-16 05:31:00,21.4,20.0,29.55,SE,136,1.0,7.0,93,0.00,,,0.00,weatherlink.com 1.10,2013-01-16 11:31:00,
2013-01-16 05:46:00,21.8,20.0,29.56,SE,146,4.0,5.0,93,0.00,,,0.00,weatherlink.com 1.10,2013-01-16 11:46:00,
2013-01-16 06:01:00,22.3,21.0,29.56,SE,128,0.0,6.0,94,0.00,,,0.00,weatherlink.com 1.10,2013-01-16 12:01:00,
2013-01-16 06:16:00,22.6,21.0,29.56,SSW,203,2.0,9.0,93,0.00,,,0.00,weatherlink.com 1.10,2013-01-16 12:16:00,
2013-01-16 06:31:00,22.6,21.0,29.57,ESE,115,3.0,7.0,92,0.00,,,0.00,weatherlink.com 1.10,2013-01-16 12:31:00,
2013-01-16 06:46:00,22.5,21.0,29.57,SE,144,3.0,12.0,92,0.00,,,0.00,weatherlink.com 1.10,2013-01-16 12:46:00,
2013-01-16 07:01:00,22.3,20.0,29.59,ESE,122,5.0,9.0,91,0.00,,,0.00,weatherlink.com 1.10,2013-01-16 13:01:00,
2013-01-16 07:16:00,22.2,20.0,29.60,ESE,113,5.0,8.0,91,0.00,,,0.00,weatherlink.com 1.10,2013-01-16 13:16:00,
2013-01-16 07:31:00,22.0,20.0,29.61,SE,146,1.0,9.0,91,0.00,,,0.00,weatherlink.com 1.10,2013-01-16 13:31:00,
2013-01-16 07:46:00,21.8,20.0,29.62,SE,142,0.0,6.0,91,0.00,,,0.00,weatherlink.com 1.10,2013-01-16 13:46:00,
2013-01-16 08:01:00,21.2,19.0,29.64,South,179,4.0,8.0,90,0.00,,,0.00,weatherlink.com 1.10,2013-01-16 14:01:00,
2013-01-16 08:16:00,20.5,18.0,29.64,SSE,147,2.0,10.0,89,0.00,,,0.00,weatherlink.com 1.10,2013-01-16 14:16:00,
2013-01-16 08:31:00,20.1,18.0,29.65,SE,131,1.0,7.0,90,0.00,,,0.00,weatherlink.com 1.10,2013-01-16 14:31:00,
2013-01-16 08:46:00,19.8,18.0,29.66,East,101,8.0,8.0,91,0.00,,,0.00,weatherlink.com 1.10,2013-01-16 14:46:00,
2013-01-16 09:01:00,19.4,17.0,29.68,SE,132,2.0,6.0,90,0.00,,,0.00,weatherlink.com 1.10,2013-01-16 15:01:00,
2013-01-16 09:16:00,18.9,16.0,29.68,SE,133,0.0,9.0,88,0.00,,,0.00,weatherlink.com 1.10,2013-01-16 15:16:00,
2013-01-16 09:31:00,18.0,14.0,29.69,SE,136,3.0,8.0,85,0.00,,,0.00,weatherlink.com 1.10,2013-01-16 15:31:00,
2013-01-16 09:46:00,17.9,14.0,29.69,SSE,148,3.0,6.0,85,0.00,,,0.00,weatherlink.com 1.10,2013-01-16 15:46:00,
2013-01-16 10:01:00,17.6,14.0,29.71,SSE,147,2.0,6.0,86,0.00,,,0.00,weatherlink.com 1.10,2013-01-16 16:01:00,
2013-01-16 10:16:00,17.0,14.0,29.72,SSE,152,0.0,5.0,87,0.00,,,0.00,weatherlink.com 1.10,2013-01-16 16:16:00,
2013-01-16 10:31:00,16.7,13.0,29.73,SSW,211,2.0,4.0,86,0.00,,,0.00,weatherlink.com 1.10,2013-01-16 16:31:00,
2013-01-16 10:46:00,16.6,13.0,29.75,SSE,150,3.0,9.0,84,0.00,,,0.00,weatherlink.com 1.10,2013-01-16 16:46:00,
2013-01-16 11:01:00,16.8,12.0,29.75,SSE,155,3.0,7.0,82,0.00,,,0.00,weatherlink.com 1.10,2013-01-16 17:01:00,
2013-01-16 11:16:00,16.7,11.0,29.76,SSE,150,0.0,7.0,77,0.00,,,0.00,weatherlink.com 1.10,2013-01-16 17:16:00,
2013-01-16 11:32:00,16.5,11.0,29.76,SE,146,3.0,4.0,77,0.00,,,0.00,weatherlink.com 1.10,2013-01-16 17:32:00,
2013-01-16 12:02:00,16.6,10.0,29.77,ESE,120,4.0,9.0,76,0.00,,,0.00,weatherlink.com 1.10,2013-01-16 18:02:00,
2013-01-16 12:17:00,16.3,11.0,29.78,ESE,114,4.0,8.0,78,0.00,,,0.00,weatherlink.com 1.10,2013-01-16 18:17:00,
2013-01-16 12:32:00,15.9,9.0,29.79,SSE,158,4.0,10.0,75,0.00,,,0.00,weatherlink.com 1.10,2013-01-16 18:32:00,
2013-01-16 12:47:00,16.0,7.0,29.80,SSE,153,1.0,8.0,67,0.00,,,0.00,weatherlink.com 1.10,2013-01-16 18:47:00,
2013-01-16 13:02:00,15.5,6.0,29.81,ESE,115,0.0,8.0,66,0.00,,,0.00,weatherlink.com 1.10,2013-01-16 19:02:00,
2013-01-16 13:17:00,15.1,6.0,29.82,SSW,204,4.0,12.0,66,0.00,,,0.00,weatherlink.com 1.10,2013-01-16 19:17:00,
2013-01-16 13:32:00,15.1,7.0,29.83,SE,131,3.0,7.0,69,0.00,,,0.00,weatherlink.com 1.10,2013-01-16 19:32:00,
2013-01-16 13:47:00,15.0,6.0,29.84,ESE,112,1.0,8.0,68,0.00,,,0.00,weatherlink.com 1.10,2013-01-16 19:47:00,
2013-01-16 14:02:00,14.5,6.0,29.85,SE,125,3.0,9.0,68,0.00,,,0.00,weatherlink.com 1.10,2013-01-16 20:02:00,
2013-01-16 14:17:00,13.3,5.0,29.86,SSW,198,2.0,11.0,68,0.00,,,0.00,weatherlink.com 1.10,2013-01-16 20:17:00,
2013-01-16 14:32:00,13.2,4.0,29.88,SE,124,3.0,7.0,68,0.00,,,0.00,weatherlink.com 1.10,2013-01-16 20:32:00,
2013-01-16 14:47:00,12.2,2.0,29.90,East,98,2.0,10.0,63,0.00,,,0.00,weatherlink.com 1.10,2013-01-16 20:47:00,
2013-01-16 15:02:00,11.4,-1.0,29.91,ESE,120,2.0,11.0,59,0.00,,,0.00,weatherlink.com 1.10,2013-01-16 21:02:00,
2013-01-16 15:17:00,11.0,1.0,29.92,South,174,6.0,10.0,65,0.00,,,0.00,weatherlink.com 1.10,2013-01-16 21:17:00,
2013-01-16 15:32:00,10.3,-2.0,29.93,SE,130,2.0,10.0,58,0.00,,,0.00,weatherlink.com 1.10,2013-01-16 21:32:00,
2013-01-16 15:48:00,9.5,-4.0,29.94,SSE,163,8.0,10.0,55,0.00,,,0.00,weatherlink.com 1.10,2013-01-16 21:48:00,
2013-01-16 16:03:00,9.0,-2.0,29.96,SE,138,2.0,10.0,60,0.00,,,0.00,weatherlink.com 1.10,2013-01-16 22:03:00,
2013-01-16 16:18:00,8.4,-2.0,29.98,ESE,113,1.0,7.0,62,0.00,,,0.00,weatherlink.com 1.10,2013-01-16 22:18:00,
2013-01-16 16:33:00,7.8,-2.0,29.99,SE,131,1.0,9.0,65,0.00,,,0.00,weatherlink.com 1.10,2013-01-16 22:33:00,
2013-01-16 16:48:00,7.3,-2.0,30.00,SSE,148,1.0,7.0,66,0.00,,,0.00,weatherlink.com 1.10,2013-01-16 22:48:00,
2013-01-16 17:03:00,6.5,-4.0,30.01,ESE,110,4.0,10.0,61,0.00,,,0.00,weatherlink.com 1.10,2013-01-16 23:03:00,
2013-01-16 17:18:00,5.5,-6.0,30.02,ESE,113,1.0,6.0,59,0.00,,,0.00,weatherlink.com 1.10,2013-01-16 23:18:00,
2013-01-16 17:33:00,4.7,-7.0,30.03,ESE,122,0.0,6.0,59,0.00,,,0.00,weatherlink.com 1.10,2013-01-16 23:33:00,
2013-01-16 17:48:00,4.2,-7.0,30.05,SSW,204,5.0,7.0,61,0.00,,,0.00,weatherlink.com 1.10,2013-01-16 23:48:00,
2013-01-16 18:03:00,3.9,-6.0,30.07,ESE,122,0.0,7.0,63,0.00,,,0.00,weatherlink.com 1.10,2013-01-17 00:03:00,
2013-01-16 18:18:00,3.1,-10.0,30.08,SE,131,2.0,11.0,54,0.00,,,0.00,weatherlink.com 1.10,2013-01-17 00:18:00,
2013-01-16 18:33:00,2.2,-11.0,30.10,ESE,117,1.0,8.0,53,0.00,,,0.00,weatherlink.com 1.10,2013-01-17 00:33:00,
2013-01-16 18:49:00,1.3,-11.0,30.11,ESE,120,0.0,6.0,56,0.00,,,0.00,weatherlink.com 1.10,2013-01-17 00:49:00,
2013-01-16 19:04:00,0.7,-11.0,30.12,SSE,155,1.0,6.0,59,0.00,,,0.00,weatherlink.com 1.10,2013-01-17 01:04:00,
2013-01-16 19:19:00,0.2,-10.0,30.13,SE,137,0.0,3.0,62,0.00,,,0.00,weatherlink.com 1.10,2013-01-17 01:19:00,
2013-01-16 19:34:00,-0.4,-10.0,30.13,SE,127,0.0,4.0,65,0.00,,,0.00,weatherlink.com 1.10,2013-01-17 01:34:00,
2013-01-16 19:49:00,-0.8,-9.0,30.15,SE,127,0.0,4.0,68,0.00,,,0.00,weatherlink.com 1.10,2013-01-17 01:49:00,
2013-01-16 20:04:00,-1.4,-10.0,30.16,SE,132,1.0,2.0,68,0.00,,,0.00,weatherlink.com 1.10,2013-01-17 02:04:00,
2013-01-16 20:19:00,-1.8,-11.0,30.17,SE,129,2.0,6.0,66,0.00,,,0.00,weatherlink.com 1.10,2013-01-17 02:19:00,
2013-01-16 20:34:00,-2.2,-11.0,30.17,South,170,1.0,6.0,67,0.00,,,0.00,weatherlink.com 1.10,2013-01-17 02:34:00,
2013-01-16 20:49:00,-2.6,-10.0,30.16,SE,135,0.0,4.0,69,0.00,,,0.00,weatherlink.com 1.10,2013-01-17 02:49:00,
2013-01-16 21:04:00,-3.2,-11.0,30.17,SE,138,0.0,2.0,70,0.00,,,0.00,weatherlink.com 1.10,2013-01-17 03:04:00,
2013-01-16 21:19:00,-3.8,-11.0,30.18,SE,143,0.0,1.0,71,0.00,,,0.00,weatherlink.com 1.10,2013-01-17 03:19:00,
2013-01-16 21:34:00,-4.5,-12.0,30.18,SE,143,0.0,5.0,71,0.00,,,0.00,weatherlink.com 1.10,2013-01-17 03:34:00,
2013-01-16 21:49:00,-4.9,-12.0,30.18,SE,128,0.0,2.0,72,0.00,,,0.00,weatherlink.com 1.10,2013-01-17 03:49:00,
2013-01-16 22:05:00,-5.1,-12.0,30.19,SSE,164,0.0,3.0,73,0.00,,,0.00,weatherlink.com 1.10,2013-01-17 04:05:00,
2013-01-16 22:20:00,-5.5,-12.0,30.20,SSE,152,0.0,1.0,73,0.00,,,0.00,weatherlink.com 1.10,2013-01-17 04:20:00,
2013-01-16 22:35:00,-6.2,-12.0,30.21,SSE,157,0.0,1.0,74,0.00,,,0.00,weatherlink.com 1.10,2013-01-17 04:35:00,
2013-01-16 22:50:00,-6.4,-13.0,30.23,SSE,155,1.0,1.0,74,0.00,,,0.00,weatherlink.com 1.10,2013-01-17 04:50:00,
2013-01-16 23:05:00,-6.2,-13.0,30.24,ESE,108,0.0,2.0,73,0.00,,,0.00,weatherlink.com 1.10,2013-01-17 05:05:00,
2013-01-16 23:20:00,-6.2,-13.0,30.25,ESE,108,0.0,1.0,72,0.00,,,0.00,weatherlink.com 1.10,2013-01-17 05:20:00,
2013-01-16 23:35:00,-6.3,-13.0,30.26,SE,136,0.0,3.0,71,0.00,,,0.00,weatherlink.com 1.10,2013-01-17 05:35:00,
2013-01-16 23:50:00,-6.5,-14.0,30.26,SE,143,0.0,2.0,71,0.00,,,0.00,weatherlink.com 1.10,2013-01-17 05:50:00,